• In Czech Republic
  • List of Countries
  • For 7 days
  • Water Temperature
  • Satellite Maps
  • Weather Map
  • Weather Widgets
  • user-avatar
    Login

    Hourly Weather Saint-Pierre i Miquelon

    Today, 23 June, Saturday

    Time Temperature Precipitation Wind Pressure Humidity
    00:00 +8°C° 0 mm 6 mps 764 mmHg 75%
    01:00 +7°C° 0 mm 6 mps 764 mmHg 76%
    02:00 +7°C° 0 mm 6 mps 764 mmHg 79%
    03:00 +7°C° 0 mm 6 mps 764 mmHg 79%
    04:00 +7°C° 0 mm 6 mps 765 mmHg 79%
    05:00 +8°C° 0 mm 7 mps 765 mmHg 79%
    06:00 +9°C° 0 mm 7 mps 765 mmHg 76%
    07:00 +11°C° 0 mm 7 mps 765 mmHg 73%
    08:00 +12°C° 0 mm 8 mps 765 mmHg 69%
    09:00 +13°C° 0 mm 8 mps 765 mmHg 67%
    10:00 +15°C° 0 mm 8 mps 765 mmHg 64%
    11:00 +16°C° 0 mm 8 mps 765 mmHg 62%
    12:00 +16°C° 0 mm 8 mps 765 mmHg 61%
    13:00 +16°C° 0 mm 8 mps 765 mmHg 61%
    14:00 +16°C° 0 mm 8 mps 765 mmHg 60%
    15:00 +15°C° 0 mm 8 mps 765 mmHg 61%
    16:00 +13°C° 0 mm 8 mps 765 mmHg 62%
    17:00 +12°C° 0 mm 8 mps 765 mmHg 63%
    18:00 +11°C° 0 mm 8 mps 764 mmHg 64%
    19:00 +10°C° 0 mm 7 mps 764 mmHg 65%
    20:00 +10°C° 0 mm 7 mps 764 mmHg 66%
    21:00 +9°C° 0 mm 7 mps 764 mmHg 66%
    22:00 +9°C° 0 mm 7 mps 764 mmHg 67%
    23:00 +9°C° 0 mm 7 mps 764 mmHg 67%

    Tomorrow, 24 June, Sunday

    Time Temperature Precipitation Wind Pressure Humidity
    00:00 +9°C° 0 mm 6 mps 763 mmHg 72%
    01:00 +9°C° 0 mm 6 mps 763 mmHg 76%
    02:00 +9°C° 0 mm 6 mps 762 mmHg 80%
    03:00 +9°C° 0 mm 5 mps 762 mmHg 85%
    04:00 +9°C° 0 mm 5 mps 761 mmHg 90%
    05:00 +9°C° 0 mm 5 mps 761 mmHg 95%
    06:00 +10°C° 0.1 mm 5 mps 760 mmHg 95%
    07:00 +12°C° 0.1 mm 5 mps 760 mmHg 95%
    08:00 +13°C° 0.1 mm 5 mps 759 mmHg 95%
    09:00 +13°C° 1.1 mm 5 mps 758 mmHg 96%
    10:00 +13°C° 1.1 mm 5 mps 757 mmHg 96%
    11:00 +13°C° 1.1 mm 5 mps 757 mmHg 97%
    12:00 +13°C° 1.2 mm 5 mps 756 mmHg 97%
    13:00 +12°C° 1.2 mm 5 mps 756 mmHg 97%
    14:00 +12°C° 1.2 mm 4 mps 755 mmHg 98%
    15:00 +12°C° 0.1 mm 4 mps 755 mmHg 97%
    16:00 +12°C° 0.1 mm 3 mps 755 mmHg 96%
    17:00 +13°C° 0.1 mm 3 mps 755 mmHg 95%
    18:00 +13°C° 0 mm 3 mps 756 mmHg 96%
    19:00 +13°C° 0 mm 3 mps 756 mmHg 97%
    20:00 +13°C° 0 mm 3 mps 757 mmHg 97%
    21:00 +13°C° 0 mm 3 mps 757 mmHg 97%
    22:00 +13°C° 0 mm 3 mps 758 mmHg 97%
    23:00 +13°C° 0 mm 3 mps 758 mmHg 97%

    Day after tomorrow, 25 June, Monday

    Time Temperature Precipitation Wind Pressure Humidity
    00:00 +13°C° 0.1 mm 3 mps 758 mmHg 97%
    01:00 +12°C° 0.1 mm 3 mps 758 mmHg 97%
    02:00 +12°C° 0.1 mm 4 mps 759 mmHg 97%
    03:00 +12°C° 0.1 mm 5 mps 759 mmHg 97%
    04:00 +10°C° 0.1 mm 5 mps 759 mmHg 96%
    05:00 +10°C° 0.1 mm 6 mps 760 mmHg 96%
    06:00 +10°C° 0.1 mm 6 mps 760 mmHg 95%
    07:00 +10°C° 0.1 mm 7 mps 760 mmHg 94%
    08:00 +10°C° 0.1 mm 7 mps 761 mmHg 92%
    09:00 +9°C° 0.3 mm 7 mps 761 mmHg 91%
    10:00 +9°C° 0.3 mm 8 mps 761 mmHg 90%
    11:00 +9°C° 0.3 mm 8 mps 761 mmHg 88%
    12:00 +8°C° 2.9 mm 9 mps 761 mmHg 90%
    13:00 +7°C° 2.9 mm 9 mps 760 mmHg 92%
    14:00 +7°C° 2.9 mm 10 mps 760 mmHg 93%
    15:00 +6°C° 3.1 mm 11 mps 760 mmHg 93%
    16:00 +4°C° 3.1 mm 12 mps 759 mmHg 93%
    17:00 +4°C° 3.1 mm 14 mps 759 mmHg 93%
    18:00 +3°C° 4.5 mm 14 mps 759 mmHg 93%
    19:00 +2°C° 4.5 mm 15 mps 759 mmHg 93%
    20:00 +2°C° 4.5 mm 15 mps 758 mmHg 93%
    21:00 +2°C° 1.4 mm 15 mps 758 mmHg 92%
    22:00 +2°C° 1.4 mm 16 mps 758 mmHg 92%
    23:00 +2°C° 1.4 mm 16 mps 758 mmHg 92%

    26 June, Tuesday

    Time Temperature Precipitation Wind Pressure Humidity
    00:00 +2°C° 1.2 mm 16 mps 757 mmHg 92%
    01:00 +2°C° 1.2 mm 15 mps 757 mmHg 91%
    02:00 +3°C° 1.2 mm 14 mps 757 mmHg 91%
    03:00 +3°C° 0.8 mm 14 mps 757 mmHg 91%
    04:00 +2°C° 0.8 mm 15 mps 756 mmHg 91%
    05:00 +2°C° 0.8 mm 15 mps 756 mmHg 92%
    06:00 +2°C° 0.5 mm 15 mps 756 mmHg 91%
    07:00 +2°C° 0.5 mm 15 mps 756 mmHg 91%
    08:00 +1°C° 0.5 mm 16 mps 756 mmHg 91%
    09:00 +2°C° 0.6 mm 15 mps 756 mmHg 91%
    10:00 +3°C° 0.6 mm 14 mps 756 mmHg 91%
    11:00 +3°C° 0.6 mm 14 mps 756 mmHg 91%
    12:00 +3°C° 0.7 mm 13 mps 756 mmHg 91%
    13:00 +3°C° 0.7 mm 13 mps 756 mmHg 91%
    14:00 +3°C° 0.7 mm 12 mps 755 mmHg 91%
    15:00 +3°C° 1.3 mm 12 mps 755 mmHg 92%
    16:00 +3°C° 1.3 mm 12 mps 755 mmHg 92%
    17:00 +3°C° 1.3 mm 12 mps 755 mmHg 92%
    18:00 +3°C° 1.4 mm 12 mps 755 mmHg 92%
    19:00 +3°C° 1.4 mm 12 mps 756 mmHg 92%
    20:00 +3°C° 1.4 mm 12 mps 756 mmHg 92%
    21:00 +3°C° 0.6 mm 12 mps 756 mmHg 92%
    22:00 +2°C° 0.6 mm 11 mps 756 mmHg 92%
    23:00 +2°C° 0.6 mm 11 mps 756 mmHg 91%

    27 June, Wednesday

    Time Temperature Precipitation Wind Pressure Humidity
    00:00 +2°C° 0.2 mm 10 mps 756 mmHg 90%
    01:00 +2°C° 0.2 mm 9 mps 756 mmHg 89%
    02:00 +2°C° 0.2 mm 8 mps 757 mmHg 88%
    03:00 +2°C° 0 mm 8 mps 757 mmHg 88%
    04:00 +4°C° 0 mm 8 mps 757 mmHg 88%
    05:00 +4°C° 0 mm 8 mps 758 mmHg 88%
    06:00 +6°C° 0 mm 9 mps 757 mmHg 83%
    07:00 +8°C° 0 mm 9 mps 757 mmHg 78%
    08:00 +11°C° 0 mm 9 mps 757 mmHg 72%
    09:00 +11°C° 0 mm 9 mps 757 mmHg 72%
    10:00 +11°C° 0 mm 9 mps 757 mmHg 72%
    11:00 +11°C° 0 mm 9 mps 757 mmHg 73%
    12:00 +12°C° 0 mm 9 mps 757 mmHg 71%
    13:00 +13°C° 0 mm 9 mps 758 mmHg 69%
    14:00 +15°C° 0 mm 9 mps 758 mmHg 67%
    15:00 +15°C° 0 mm 9 mps 758 mmHg 67%
    16:00 +14°C° 0 mm 10 mps 758 mmHg 68%
    17:00 +14°C° 0 mm 10 mps 759 mmHg 69%
    18:00 +13°C° 0 mm 9 mps 759 mmHg 72%
    19:00 +12°C° 0 mm 9 mps 760 mmHg 75%
    20:00 +11°C° 0 mm 8 mps 761 mmHg 78%
    21:00 +11°C° 0 mm 8 mps 761 mmHg 77%
    22:00 +11°C° 0 mm 8 mps 761 mmHg 77%
    23:00 +12°C° 0 mm 8 mps 762 mmHg 76%

    28 June, Thursday

    Time Temperature Precipitation Wind Pressure Humidity
    00:00 +11°C° 0 mm 8 mps 762 mmHg 79%
    01:00 +11°C° 0 mm 8 mps 762 mmHg 81%
    02:00 +10°C° 0 mm 8 mps 762 mmHg 83%
    03:00 +10°C° 0 mm 8 mps 762 mmHg 84%
    04:00 +10°C° 0 mm 8 mps 763 mmHg 85%
    05:00 +10°C° 0 mm 8 mps 763 mmHg 86%
    06:00 +11°C° 0 mm 8 mps 764 mmHg 83%
    07:00 +12°C° 0 mm 8 mps 764 mmHg 81%
    08:00 +15°C° 0 mm 8 mps 764 mmHg 78%
    09:00 +15°C° 0 mm 8 mps 765 mmHg 76%
    10:00 +16°C° 0 mm 9 mps 765 mmHg 75%
    11:00 +16°C° 0 mm 9 mps 765 mmHg 73%
    12:00 +16°C° 0 mm 9 mps 766 mmHg 73%
    13:00 +16°C° 0 mm 9 mps 766 mmHg 74%
    14:00 +15°C° 0 mm 9 mps 766 mmHg 74%
    15:00 +15°C° 0 mm 9 mps 767 mmHg 75%
    16:00 +13°C° 0 mm 9 mps 767 mmHg 76%
    17:00 +13°C° 0 mm 8 mps 767 mmHg 77%
    18:00 +13°C° 0 mm 8 mps 768 mmHg 80%
    19:00 +12°C° 0 mm 8 mps 768 mmHg 83%
    20:00 +12°C° 0 mm 8 mps 768 mmHg 86%
    21:00 +12°C° 0 mm 8 mps 768 mmHg 87%
    22:00 +12°C° 0 mm 8 mps 768 mmHg 88%
    23:00 +12°C° 0 mm 8 mps 768 mmHg 89%
    Show more